Location: D�derode
(51.8092°N, 10.1065°E)
Time: 21:29:06
(UTC+00:00)

Cosmos 2237 Rocket - Pass Details

Date: 01 December 2020
Orbit: 833 x 851 km, 71.0° (Epoch: 24 January)

Event Time Altitude Azimuth Distance (km) Brightness Sun altitude
Rises 17:44:05 0° 258° (WSW) 3,382 6.8 -22.4°
Reaches altitude 10° 17:47:03 10° 273° (W) 2,453 5.7 -22.9°
Maximum altitude 17:51:26 23° 324° (NW) 1,736 4.1 -23.6°
Enters shadow 17:55:09 13° 11° (N) 2,287 4.3 -24.1°
